Vertical_Velocity
4 2 2 2 1 -0 -3 -3 -2 -1 -3 -2 -3 -4 -4 -3 -2 -2 -2 -2 -3 -4 -5 -4 -3 -2 -1 0 1 0 -1 -2 -2 -3 -3 -4 -4 -4 -3 -3 -3 -2 -2 -2 -2 -2 -2 -2 -2 -2 -2 -2 -2 -2 -2 -2 -2 -2 -1 -1 -1 -1 -0 -0 0 0 -0 0 0 0 -0 -1 -1 -1 -1 -1 -1 -1 -2 -2 -2 -2 -2 -2 -2 -2
5 4 2 1 0 -0 -3 -4 -3 -1 -1 -2 -2 -3 -3 -3 -3 -3 -2 -2 -3 -3 -4 -3 -2 -0 1 1 1 0 -1 -2 -3 -3 -4 -4 -4 -4 -4 -3 -3 -3 -3 -3 -3 -2 -2 -2 -2 -2 -2 -2 -2 -2 -2 -2 -2 -2 -2 -2 -1 -1 -0 -0 -0 -0 -0 -0 0 0 -0 -0 -0 -0 -1 -1 -1 -1 -1 -2 -2 -2 -1 -1 -2 -2
5 5 2 1 1 1 -1 -3 -2 -1 -1 -2 -2 -3 -3 -3 -4 -3 -2 -2 -2 -2 -1 -1 -0 1 1 1 0 -0 -2 -2 -3 -4 -4 -4 -4 -4 -4 -3 -3 -3 -3 -3 -3 -2 -2 -2 -2 -2 -2 -3 -3 -3 -2 -2 -2 -2 -2 -2 -2 -1 -1 -1 -1 -1 -1 -0 -0 -0 0 -0 -0 -0 -0 -0 -0 -0 -1 -1 -1 -1 -1 -1 -1 -2
4 4 1 1 2 2 1 1 -0 -1 -2 -3 -3 -3 -3 -3 -3 -3 -1 -1 -0 -0 0 1 1 0 0 0 -0 -1 -2 -3 -3 -4 -4 -4 -4 -4 -4 -3 -3 -3 -3 -3 -3 -2 -2 -2 -2 -2 -2 -2 -2 -3 -3 -2 -2 -2 -2 -2 -2 -2 -1 -1 -1 -1 -1 -0 -0 -0 -0 -0 -0 -0 -0 -0 -0 -0 -0 -1 -1 -2 -2 -2 -2 -2
3 3 2 2 2 0 -1 1 0 -1 -2 -2 -3 -3 -2 -2 -2 -1 -0 1 1 1 1 1 1 -0 -1 -1 -1 -1 -2 -3 -4 -4 -4 -4 -4 -4 -4 -3 -3 -3 -3 -2 -2 -2 -2 -2 -2 -2 -2 -2 -2 -2 -2 -2 -2 -2 -1 -1 -1 -1 -1 -1 -1 -1 -1 -1 -1 -1 -1 -1 -1 -1 -1 -0 -1 -1 -1 -1 -2 -2 -2 -2 -3 -2
2 2 3 4 2 -0 -2 -1 -1 -2 -2 -2 -2 -1 -2 -2 -1 -0 1 2 3 3 3 2 1 -0 -1 -2 -2 -2 -3 -3 -4 -4 -4 -4 -4 -4 -4 -4 -3 -3 -3 -3 -3 -3 -3 -3 -3 -3 -3 -2 -2 -2 -2 -2 -2 -2 -2 -1 -1 -2 -2 -2 -2 -2 -2 -2 -2 -2 -1 -1 -1 -1 -1 -1 -1 -1 -1 -2 -2 -2 -2 -3 -3 -3
1 1 3 3 2 0 -1 -2 -2 -2 -1 -2 -1 -1 -1 -1 -0 -0 1 2 3 3 3 2 1 -0 -2 -3 -3 -3 -4 -4 -4 -4 -4 -4 -4 -4 -4 -4 -3 -3 -3 -3 -3 -3 -3 -3 -3 -3 -3 -3 -3 -2 -2 -2 -2 -2 -2 -2 -2 -2 -2 -2 -2 -2 -3 -2 -2 -2 -2 -2 -2 -2 -2 -2 -2 -2 -2 -2 -2 -2 -2 -3 -3 -3
1 -0 1 1 1 -0 -0 -1 -2 -1 -0 -0 -1 -1 -1 -0 -0 0 1 2 3 3 2 2 2 0 -2 -3 -4 -4 -4 -4 -4 -4 -3 -4 -4 -4 -4 -4 -3 -3 -3 -3 -3 -3 -4 -4 -4 -4 -3 -3 -3 -3 -3 -3 -3 -3 -3 -3 -3 -3 -3 -3 -3 -3 -3 -3 -3 -3 -2 -2 -2 -2 -2 -2 -2 -2 -2 -2 -2 -2 -2 -2 -2 -3
1 -0 -1 -0 -0 -0 -0 -1 -1 -0 -0 0 -0 -1 -1 -1 -1 -0 1 1 1 1 2 1 1 1 0 -2 -4 -6 -5 -4 -4 -4 -3 -2 -3 -3 -4 -3 -3 -2 -2 -3 -3 -3 -3 -4 -4 -4 -3 -3 -3 -3 -3 -3 -3 -3 -3 -3 -3 -3 -3 -3 -3 -3 -3 -3 -3 -2 -2 -2 -2 -3 -3 -2 -2 -2 -2 -2 -2 -2 -2 -2 -2 -2
1 1 -1 -2 -1 0 1 -0 -0 -0 0 -0 -0 -1 -1 -2 -2 -2 -1 -1 -1 -0 1 1 1 2 2 1 -2 -5 -6 -4 -2 -2 -3 -3 -2 -1 -3 -3 -2 -2 -2 -2 -2 -3 -3 -4 -3 -3 -3 -2 -3 -3 -3 -3 -3 -3 -4 -4 -3 -3 -3 -3 -3 -3 -3 -3 -2 -2 -2 -2 -2 -3 -3 -2 -2 -2 -2 -2 -2 -2 -2 -2 -2 -2
-0 -0 0 -0 -1 -0 1 1 0 -0 0 -0 -1 -1 -2 -2 -1 -1 -1 -2 -2 -1 -0 1 2 2 1 2 1 -2 -5 -5 -3 -1 -1 -1 -2 -2 -2 -2 -2 -2 -2 -1 -2 -2 -3 -3 -3 -2 -2 -3 -3 -3 -4 -4 -4 -4 -4 -4 -4 -4 -4 -3 -3 -3 -2 -2 -2 -2 -2 -2 -2 -2 -2 -2 -2 -3 -3 -3 -2 -2 -2 -2 -2 -1
-1 -1 -0 0 0 -0 -1 -0 0 0 0 -0 -1 -2 -3 -3 -1 0 -0 -1 -2 -1 -1 1 2 3 2 1 1 0 -2 -4 -4 -2 -1 0 0 -1 -2 -2 -1 -1 -2 -1 -1 -1 -4 -4 -3 -2 -2 -3 -3 -3 -4 -5 -4 -4 -4 -4 -4 -4 -4 -3 -3 -2 -2 -1 -1 -1 -2 -2 -2 -2 -2 -2 -2 -3 -3 -3 -3 -2 -2 -2 -2 -2
0 1 1 1 0 -0 -1 -1 -1 -1 -1 -1 -1 -2 -3 -4 -3 -1 -1 -1 -1 -1 -1 0 2 3 4 2 0 -1 -2 -2 -2 -2 -1 0 1 0 -2 -2 -1 -0 -2 -1 0 0 -3 -4 -3 -0 -1 -3 -3 -3 -3 -4 -4 -4 -4 -4 -4 -3 -3 -3 -2 -2 -1 -1 -1 -1 -2 -2 -2 -2 -2 -2 -2 -2 -3 -3 -3 -2 -2 -2 -2 -2
1 1 1 0 -0 -1 -1 -1 -0 -1 -1 -1 -1 -1 -2 -2 -2 -2 -2 -2 -2 -1 -0 -0 1 3 5 4 2 -1 -3 -3 -2 -1 1 3 3 0 -4 -2 1 2 -2 -3 0 2 -0 -4 -3 0 1 -1 -2 -2 -3 -3 -3 -3 -3 -3 -3 -2 -2 -2 -1 -1 -1 -1 -1 -2 -2 -2 -2 -2 -2 -2 -2 -2 -3 -2 -2 -2 -2 -2 -2 -2
0 0 -0 -1 -1 -1 -1 -0 -0 -0 -1 -1 -2 -2 -2 -2 -2 -2 -1 -2 -2 -1 -1 -1 1 3 6 5 2 -0 -2 -2 -2 -2 -0 5 7 4 -6 -5 -0 4 -0 -3 -1 2 2 -2 -2 0 2 1 -1 -2 -3 -3 -3 -2 -3 -2 -2 -2 -2 -2 -1 -1 -1 -1 -2 -2 -2 -2 -2 -2 -2 -2 -2 -2 -2 -2 -2 -2 -2 -2 -2 -2
-0 -0 -1 -2 -1 -1 -0 0 0 -0 -1 -1 -2 -2 -2 -2 -2 -1 -1 -2 -2 -1 -2 -2 -1 2 6 8 4 -1 -5 -2 -0 0 -3 4 10 9 -4 -8 -3 4 3 -2 -2 0 2 -0 -0 0 1 1 0 -1 -2 -3 -3 -3 -2 -2 -2 -2 -2 -2 -2 -2 -2 -2 -3 -3 -3 -3 -2 -2 -2 -2 -2 -2 -2 -2 -2 -2 -2 -2 -2 -1
-1 -1 -1 -0 -0 -0 0 1 0 -0 -0 -1 -2 -2 -1 -1 -1 -1 -2 -3 -3 -2 -1 -1 -3 -2 1 8 10 5 -6 -8 -3 1 -1 2 9 10 -1 -8 -4 2 5 1 -1 -1 -0 0 1 1 0 0 -1 -1 -3 -3 -3 -2 -2 -2 -2 -2 -2 -2 -3 -3 -3 -3 -3 -3 -3 -3 -2 -2 -2 -2 -2 -2 -2 -2 -2 -2 -2 -1 -1 -1
-0 0 1 1 1 1 2 1 0 -0 -0 -1 -2 -2 -1 -1 -1 -1 -2 -2 -2 -3 -2 -1 -1 -3 -4 1 8 10 -1 -10 -7 -1 -1 2 7 9 1 -6 -4 1 4 2 0 -0 -1 -0 1 1 -0 -0 -1 -2 -3 -3 -3 -3 -2 -2 -2 -2 -3 -3 -3 -3 -3 -3 -3 -3 -3 -3 -3 -3 -3 -2 -2 -2 -2 -2 -2 -2 -2 -1 -1 -1
-1 0 2 2 1 1 1 1 1 0 -0 -2 -2 -2 -3 -2 -2 -2 -2 -2 -1 -1 -1 -1 -0 -0 -2 -1 5 8 -0 -9 -7 -3 -2 -0 6 8 2 -4 -3 1 3 1 -0 -1 -1 0 0 0 -0 -0 -1 -2 -3 -3 -3 -3 -3 -3 -3 -3 -3 -3 -3 -3 -3 -3 -3 -3 -3 -3 -3 -3 -3 -3 -3 -3 -3 -3 -3 -2 -2 -2 -2 -1
-0 0 1 1 1 -0 -1 -1 -0 -0 -1 -2 -3 -3 -4 -3 -3 -2 -2 -1 -0 0 0 -2 -1 1 1 1 4 5 -1 -7 -7 -4 -3 0 5 7 1 -4 -2 1 2 0 -1 -1 -1 0 1 1 0 -0 -1 -2 -3 -3 -3 -4 -4 -4 -4 -4 -4 -3 -3 -2 -2 -2 -2 -2 -3 -3 -3 -3 -3 -3 -4 -4 -4 -3 -3 -3 -3 -2 -2 -2
-0 -0 -0 0 -0 -1 -3 -3 -3 -3 -3 -3 -3 -4 -4 -4 -3 -2 -2 -1 -0 0 1 -1 -0 2 2 1 3 4 -0 -6 -6 -4 -2 2 5 6 -0 -3 -2 -0 0 0 -0 -0 -0 0 1 1 1 1 -0 -1 -2 -3 -3 -4 -4 -4 -4 -4 -3 -2 -2 -2 -2 -2 -2 -2 -2 -2 -3 -3 -3 -3 -4 -4 -4 -3 -3 -3 -3 -2 -2 -2
-1 -2 -2 -2 -2 -3 -3 -4 -4 -3 -3 -3 -4 -4 -4 -4 -3 -2 -0 -1 -1 -0 -0 -0 1 2 2 2 3 3 -0 -5 -6 -4 -2 1 4 4 -1 -4 -3 -1 -0 0 0 0 0 0 1 1 2 1 0 -0 -1 -2 -2 -3 -4 -4 -4 -4 -3 -2 -2 -2 -2 -2 -2 -2 -2 -3 -3 -3 -3 -3 -3 -3 -3 -3 -3 -3 -3 -2 -2 -2
-2 -2 -3 -3 -3 -3 -3 -3 -2 -2 -2 -3 -3 -3 -3 -4 -3 -2 -0 -0 -1 -1 -1 -0 1 3 3 2 2 2 0 -3 -4 -3 -2 -2 0 2 -1 -4 -4 -2 -1 -0 0 0 1 1 1 2 2 2 1 0 -0 -1 -1 -2 -3 -3 -4 -4 -4 -4 -3 -3 -3 -3 -3 -3 -3 -3 -3 -3 -3 -3 -3 -3 -3 -3 -3 -3 -2 -2 -2 -2
-2 -2 -2 -2 -2 -2 -2 -2 -1 -1 -1 -1 -2 -2 -3 -3 -3 -2 -0 -1 -1 -1 -1 -0 1 3 4 2 1 0 -1 -3 -4 -3 -3 -3 -2 -1 -1 -3 -3 -3 -1 -0 -0 -0 -0 1 1 2 1 2 1 1 0 -0 -0 -1 -2 -2 -3 -4 -4 -4 -5 -4 -4 -4 -4 -4 -3 -3 -3 -3 -3 -2 -2 -2 -2 -2 -3 -2 -2 -2 -2 -2
-2 -2 -1 -1 -1 -0 -1 -1 -0 -0 -0 -0 -1 -2 -2 -2 -2 -1 -1 -1 -2 -2 -2 -1 -0 1 2 0 -0 -1 -2 -4 -4 -3 -3 -4 -4 -2 -1 -2 -3 -2 -2 -0 0 -0 -1 -0 1 2 1 1 1 1 1 1 0 0 -0 -1 -1 -2 -3 -4 -5 -5 -5 -5 -4 -4 -3 -3 -3 -2 -2 -2 -2 -2 -2 -2 -2 -2 -2 -2 -2 -3
-1 -1 -1 -1 -1 -0 -0 -0 -0 -0 -0 -0 -1 -1 -2 -2 -1 -0 -0 -1 -2 -3 -2 -2 -2 -1 -0 -1 -1 -0 -1 -2 -3 -3 -4 -5 -4 -3 -0 -1 -2 -2 -2 -1 -0 -0 -1 -1 1 2 2 2 2 2 3 2 2 1 1 1 0 -1 -2 -3 -4 -4 -5 -5 -5 -5 -4 -4 -3 -3 -2 -2 -2 -2 -2 -2 -2 -2 -2 -2 -3 -3
-1 -1 -1 -1 -1 -1 -0 -0 -0 -0 -1 -1 -2 -2 -2 -1 -0 1 1 -0 -1 -2 -2 -3 -2 -1 -1 -1 -0 -0 -0 -1 -2 -3 -4 -5 -5 -3 -0 -0 -1 -2 -3 -2 -1 0 -0 -0 1 2 2 3 3 3 4 3 2 2 2 1 1 0 -0 -1 -2 -3 -4 -4 -5 -5 -5 -5 -5 -4 -4 -4 -3 -3 -2 -2 -2 -2 -2 -3 -4 -4
-1 -1 -1 -1 -0 -0 0 0 0 -0 -1 -1 -2 -2 -2 -2 -0 0 1 -0 -1 -2 -2 -2 -2 -2 -1 -0 0 1 1 0 -1 -3 -3 -4 -4 -3 0 -0 -2 -3 -4 -4 -2 0 2 1 1 1 1 2 2 2 2 2 2 1 1 1 1 1 1 0 -0 -1 -1 -2 -2 -3 -4 -4 -4 -5 -5 -5 -5 -4 -4 -3 -3 -3 -3 -4 -4 -4
-1 -1 -1 -1 -0 0 1 1 0 -0 -1 -1 -1 -2 -2 -2 -2 -1 -1 -1 -2 -2 -3 -2 -2 -2 -2 -1 0 1 2 1 -0 -2 -2 -3 -3 -2 0 -1 -2 -4 -5 -7 -6 -2 4 4 2 -1 -2 -1 0 1 1 1 1 1 1 2 2 2 2 1 1 1 0 0 -0 -1 -1 -2 -2 -3 -4 -4 -4 -4 -4 -4 -4 -4 -5 -5 -5 -5
-2 -2 -2 -2 -1 -1 -0 -0 -0 -1 -1 -1 -2 -2 -2 -3 -3 -3 -2 -2 -2 -3 -3 -2 -2 -2 -2 -2 -1 1 3 1 -1 -2 -1 -3 -3 -3 -1 -2 -2 -3 -4 -8 -10 -8 -0 6 5 2 -2 -2 -1 0 1 0 0 0 1 2 2 3 3 2 1 1 1 1 1 1 0 0 -0 -1 -1 -2 -2 -2 -2 -2 -3 -4 -5 -5 -5 -4
-3 -3 -3 -3 -3 -2 -2 -2 -2 -2 -2 -2 -2 -2 -3 -3 -3 -3 -3 -2 -2 -2 -2 -2 -2 -2 -2 -2 -2 -0 3 1 -2 -4 -3 -4 -4 -4 -1 -2 -2 -2 -2 -5 -10 -14 -13 -3 4 6 2 -0 -0 1 2 1 0 -0 -0 0 1 2 3 2 1 1 1 2 1 1 1 1 0 -0 -0 -0 -1 -1 -1 -1 -2 -3 -5 -5 -5 -4
-3 -3 -3 -3 -3 -3 -3 -2 -2 -2 -2 -2 -2 -2 -2 -3 -3 -3 -2 -2 -2 -2 -2 -2 -2 -1 -1 -1 -1 0 2 2 -1 -4 -4 -5 -5 -4 -1 -1 -2 -2 -1 -2 -5 -10 -16 -13 -5 2 4 3 2 2 3 2 1 -0 -1 -1 -0 1 2 2 1 1 1 1 2 1 1 0 -0 -0 -0 -1 -1 -1 -1 -1 -2 -3 -4 -5 -5 -4
-3 -3 -2 -2 -2 -2 -2 -2 -2 -2 -2 -2 -2 -2 -2 -2 -2 -2 -2 -2 -2 -2 -2 -2 -2 -2 -1 -0 1 1 3 2 -0 -2 -3 -4 -5 -4 -2 -1 -2 -2 -2 -2 -2 -4 -8 -12 -11 -6 -1 2 3 3 2 1 1 0 -1 -2 -2 -1 0 1 0 -0 0 1 1 1 1 1 0 -0 -0 -1 -1 -1 -1 -1 -2 -2 -4 -5 -5 -5
-2 -2 -2 -2 -2 -2 -2 -2 -2 -2 -2 -2 -2 -2 -2 -2 -1 -1 -1 -1 -2 -2 -2 -2 -2 -2 -1 -1 0 2 3 2 -0 -2 -2 -3 -4 -4 -3 -2 -2 -3 -4 -3 -3 -4 -6 -8 -9 -9 -9 -4 1 4 3 1 -0 -0 -0 -2 -3 -4 -3 -1 -1 -1 -1 -0 -0 -0 -0 -0 -0 0 0 0 -0 -0 -1 -1 -1 -2 -2 -4 -5 -6
-2 -2 -2 -2 -2 -2 -2 -2 -2 -2 -2 -2 -2 -1 -1 -1 -1 -1 -2 -2 -2 -2 -2 -1 -1 -1 -1 -1 -1 0 2 1 -0 -2 -3 -3 -4 -5 -5 -3 -3 -3 -5 -5 -4 -4 -6 -7 -6 -6 -9 -9 -3 3 5 2 0 -1 -1 -2 -3 -4 -4 -3 -3 -4 -3 -2 -1 -1 -1 -1 -1 -1 0 1 1 0 0 0 0 -0 -1 -2 -3 -4
-2 -2 -2 -2 -2 -2 -2 -2 -2 -2 -2 -2 -2 -2 -2 -2 -2 -2 -2 -2 -2 -2 -1 -1 -0 0 0 -0 -0 -0 1 0 -0 -2 -3 -3 -4 -4 -5 -4 -3 -3 -5 -7 -6 -5 -6 -6 -5 -4 -4 -7 -7 -4 2 3 3 1 -1 -2 -3 -3 -3 -3 -4 -4 -5 -4 -3 -2 -2 -2 -2 -2 -1 0 1 1 1 2 2 1 1 -0 -2 -3
-2 -2 -2 -2 -2 -2 -2 -2 -2 -2 -2 -2 -2 -2 -2 -2 -2 -2 -2 -2 -1 -1 -1 -0 0 0 0 -0 -0 -0 -0 -0 -0 -1 -2 -3 -4 -4 -5 -4 -3 -2 -3 -6 -7 -7 -6 -7 -6 -5 -2 -3 -5 -6 -5 -1 1 2 1 -1 -2 -3 -3 -2 -3 -3 -4 -5 -4 -4 -3 -3 -3 -3 -2 -1 0 1 1 3 3 3 2 1 -0 -1
-2 -2 -2 -2 -2 -2 -2 -2 -2 -2 -2 -2 -2 -2 -2 -2 -2 -2 -2 -1 -1 -1 -0 -0 -0 -0 -0 -1 -1 -1 -1 -1 -1 -1 -2 -3 -4 -4 -5 -5 -4 -2 -1 -3 -5 -6 -6 -6 -7 -7 -6 -4 -3 -2 -3 -3 -3 -2 -1 -0 -0 -0 -1 -2 -3 -3 -4 -5 -5 -5 -4 -4 -4 -5 -4 -3 -1 -0 0 2 3 4 3 1 0 -0
-2 -2 -2 -2 -2 -2 -2 -2 -2 -3 -3 -3 -2 -2 -2 -2 -2 -1 -1 -1 -1 -1 -1 -1 -1 -1 -1 -1 -1 -1 -1 -1 -0 -0 -1 -2 -3 -4 -4 -5 -4 -3 -2 -2 -2 -3 -4 -5 -5 -5 -6 -7 -6 -4 -1 -0 -1 -3 -5 -4 -2 1 2 0 -2 -3 -4 -5 -6 -6 -5 -4 -3 -4 -4 -3 -2 -1 -0 1 3 4 3 2 1 1
-2 -2 -2 -2 -2 -2 -2 -2 -2 -3 -3 -3 -3 -2 -2 -2 -1 -1 -1 -1 -1 -1 -2 -2 -2 -1 -1 -0 -0 -0 0 1 1 1 1 0 -1 -2 -4 -4 -4 -4 -3 -2 -2 -2 -2 -3 -4 -3 -2 -4 -6 -7 -4 -0 1 -1 -4 -7 -6 -3 2 2 1 -1 -3 -3 -4 -4 -4 -3 -3 -2 -3 -2 -1 -1 -1 -0 1 2 3 1 0 -1
-2 -2 -2 -2 -2 -2 -2 -2 -2 -2 -3 -2 -2 -2 -1 -1 -0 -0 -1 -1 -1 -2 -2 -2 -2 -1 -0 1 1 1 1 1 2 2 2 1 -0 -1 -3 -3 -4 -4 -4 -3 -2 -1 -0 -1 -3 -3 -2 -4 -6 -6 -4 0 2 1 -2 -5 -6 -5 -0 3 3 1 -2 -2 -2 -2 -3 -4 -4 -3 -2 -2 -1 -1 -0 -1 -1 -0 1 1 -0 -2
-2 -2 -2 -2 -2 -3 -3 -3 -2 -2 -2 -2 -1 -1 -0 -0 -0 -1 -1 -1 -2 -2 -2 -2 -1 -1 0 1 2 2 1 1 1 1 1 1 -0 -1 -2 -2 -3 -3 -3 -3 -3 -1 1 1 -0 -1 -2 -3 -5 -7 -6 -2 2 3 2 -2 -6 -7 -4 2 5 4 -1 -3 -2 -1 -2 -3 -4 -3 -2 -1 -0 -0 1 0 0 0 0 -0 -0 -1
-2 -2 -2 -2 -2 -2 -2 -2 -2 -2 -1 -1 -0 -0 -1 -1 -1 -1 -2 -2 -2 -2 -2 -1 -1 -1 -0 1 1 1 1 0 0 0 -0 -0 -1 -1 -1 -1 -1 -2 -2 -3 -3 -2 0 2 2 1 -1 -2 -4 -5 -6 -3 -1 2 3 1 -3 -7 -10 -4 1 4 2 1 0 -0 -1 -2 -2 -2 -0 0 1 1 1 1 2 2 1 0 -1 -1
-2 -2 -2 -2 -2 -2 -2 -2 -1 -1 -0 -0 -0 -1 -1 -2 -2 -2 -2 -2 -2 -2 -2 -2 -2 -1 -1 -1 -0 0 1 1 1 0 0 -0 -1 -1 -2 -1 -1 -1 -1 -1 -2 -3 -3 -1 1 2 1 -1 -3 -5 -5 -4 -2 -0 2 3 1 -1 -4 -4 -2 -0 0 1 2 2 1 -1 -2 -2 -1 1 2 2 2 2 2 3 3 2 1 -0
-2 -2 -2 -2 -2 -2 -1 -0 -0 -0 -0 -1 -1 -2 -2 -2 -2 -3 -3 -2 -2 -2 -2 -2 -2 -2 -1 -1 -1 -0 -0 1 1 1 1 1 0 -0 -1 -1 -2 -2 -1 -1 -1 -1 -2 -3 -2 -1 1 0 -0 -1 -2 -3 -3 -2 1 3 3 1 -0 1 0 -1 -3 -2 -0 1 1 -0 -2 -2 -2 0 2 3 3 2 2 3 4 3 2 1
-2 -2 -2 -2 -1 -1 -0 0 0 -0 -1 -1 -2 -2 -2 -2 -2 -2 -2 -2 -2 -2 -2 -2 -2 -2 -2 -1 -1 -1 -0 0 1 2 2 1 1 0 -0 -1 -1 -2 -2 -2 -2 -1 -0 -1 -2 -2 -2 -2 -1 1 3 1 -2 -3 -2 1 2 1 1 2 2 1 -2 -3 -2 -0 1 1 -0 -1 -1 -0 1 3 4 4 3 3 3 3 2 1
-1 -1 -1 -0 -0 -0 -0 -0 -0 -1 -1 -1 -2 -2 -2 -2 -2 -2 -2 -2 -2 -2 -2 -1 -1 -1 -1 -1 -1 -1 -1 -0 1 2 2 2 1 1 0 -0 -0 -1 -1 -2 -2 -2 -2 -1 -1 -1 -2 -4 -4 -2 2 3 2 -0 -2 -0 0 1 0 1 2 2 -0 -1 -1 -1 0 -0 -1 -1 -1 -0 0 2 4 4 4 3 2 1 1 0
-0 -0 -0 -0 -0 -0 -1 -1 -1 -1 -1 -1 -1 -1 -2 -2 -2 -2 -2 -2 -2 -2 -1 -1 -1 -1 -0 -0 -0 -0 -1 -1 -0 1 1 1 1 1 1 1 0 -0 -0 -1 -1 -1 -2 -0 1 2 2 -1 -3 -4 -2 2 4 2 0 -0 -0 -1 -2 -0 1 1 -1 -2 -1 -1 -0 -1 -3 -3 -3 -2 -1 1 3 4 4 3 2 0 -0 -0
-0 -0 -0 -0 -0 -1 -1 -1 -1 -1 -1 -1 -1 -1 -1 -1 -1 -2 -2 -2 -2 -2 -1 -1 -1 -1 -1 -0 -0 -0 -0 -1 -0 0 1 1 0 0 1 1 0 0 -0 -0 -0 -0 -1 1 3 5 6 3 -1 -5 -6 -1 2 3 2 0 -1 -3 -5 -4 -2 -1 -2 -3 -2 -1 -0 -1 -2 -3 -4 -4 -3 -1 2 4 4 4 2 0 -0 -0
-0 -0 -0 -0 -1 -1 -1 -1 -1 -1 -1 -1 -0 -0 -0 -0 -1 -1 -1 -1 -1 -1 -1 -1 -1 -1 -1 -1 -0 -0 -0 -0 -0 0 1 1 0 -0 -0 -0 -1 -1 -2 -1 -1 -0 -1 -0 2 6 9 7 2 -4 -9 -7 -4 -1 1 1 -0 -3 -6 -6 -5 -3 -2 -3 -3 -2 -1 -0 -0 -1 -2 -4 -4 -3 0 3 4 4 2 -0 -1 -0
-0 -1 -1 -1 -1 -1 -1 -1 -1 -1 -1 -1 -0 -0 -0 -0 -1 -1 -1 -1 -1 -1 -1 -1 -1 -1 -1 -1 -0 0 0 0 0 0 1 1 0 -1 -1 -1 -2 -2 -4 -4 -4 -3 -2 -3 -1 3 10 12 8 0 -6 -9 -9 -7 -4 -1 0 -0 -3 -5 -5 -3 -2 -2 -2 -1 -1 -1 -0 -0 -1 -3 -4 -4 -2 1 4 4 2 -0 -1 -0
Height
3049 3049 3048 3048 3047 3047 3046 3046 3045 3044 3043 3043 3041 3040 3039 3038 3037 3036 3035 3034 3033 3032 3031 3030 3030 3029 3028 3027 3026 3024 3023 3021 3020 3019 3017 3016 3015 3013 3012 3011 3010 3008 3007 3006 3006 3004 3003 3002 3001 3000 2999 2998 2997 2996 2995 2994 2993 2992 2991 2991 2990 2989 2988 2988 2987 2986 2986 2985 2985 2984 2983 2982 2982 2981 2981 2981 2980 2980 2979 2979 2978 2978 2978 2977 2976 2976
3047 3046 3046 3045 3045 3044 3043 3042 3042 3041 3040 3039 3038 3037 3036 3034 3033 3032 3031 3031 3030 3029 3028 3027 3026 3025 3024 3023 3021 3020 3018 3017 3016 3014 3013 3012 3010 3009 3008 3006 3005 3004 3003 3002 3001 3000 2999 2998 2997 2996 2995 2994 2993 2992 2991 2990 2989 2988 2987 2986 2985 2985 2984 2983 2983 2982 2982 2981 2981 2980 2979 2979 2978 2978 2977 2977 2976 2976 2975 2975 2975 2974 2974 2974 2973 2973
3044 3044 3043 3042 3042 3041 3040 3039 3038 3037 3036 3035 3034 3033 3032 3031 3030 3029 3028 3027 3026 3025 3025 3023 3022 3021 3020 3019 3017 3016 3014 3013 3011 3010 3009 3007 3006 3005 3003 3002 3001 3000 2999 2998 2997 2996 2995 2994 2992 2991 2991 2989 2988 2987 2986 2986 2985 2984 2983 2982 2981 2981 2980 2980 2979 2978 2978 2977 2976 2976 2976 2975 2974 2974 2973 2973 2973 2972 2972 2971 2971 2971 2970 2970 2969 2969
3041 3040 3040 3039 3038 3038 3037 3036 3035 3034 3033 3031 3031 3029 3029 3028 3027 3026 3025 3025 3023 3022 3021 3020 3019 3017 3016 3015 3013 3012 3010 3009 3007 3006 3005 3003 3002 3000 2999 2998 2997 2996 2995 2994 2992 2991 2990 2989 2988 2987 2986 2985 2984 2983 2982 2981 2981 2980 2979 2978 2978 2977 2976 2976 2975 2974 2974 2973 2972 2972 2971 2971 2970 2970 2969 2969 2969 2968 2968 2967 2967 2966 2966 2966 2965 2965
3038 3037 3036 3036 3035 3034 3033 3032 3031 3030 3029 3028 3027 3026 3025 3024 3024 3023 3022 3021 3020 3019 3017 3016 3015 3013 3012 3011 3009 3008 3006 3005 3003 3002 3000 2999 2997 2996 2995 2994 2993 2991 2991 2989 2988 2987 2986 2985 2984 2983 2982 2981 2980 2979 2979 2978 2977 2976 2976 2975 2974 2973 2972 2972 2971 2970 2969 2969 2968 2967 2967 2966 2966 2965 2965 2964 2964 2964 2963 2963 2963 2962 2962 2961 2961 2961
3035 3034 3033 3032 3031 3031 3030 3029 3028 3027 3026 3025 3024 3023 3022 3021 3020 3019 3018 3018 3017 3016 3014 3012 3011 3009 3008 3006 3005 3004 3002 3001 2999 2998 2996 2995 2993 2992 2991 2990 2989 2987 2986 2985 2984 2983 2982 2981 2980 2979 2978 2977 2976 2976 2975 2974 2973 2973 2972 2971 2970 2969 2969 2968 2967 2966 2965 2965 2964 2963 2962 2962 2961 2961 2960 2960 2960 2959 2959 2959 2958 2958 2958 2957 2957 2956
3031 3031 3030 3029 3028 3027 3026 3025 3024 3023 3022 3021 3020 3019 3019 3017 3016 3016 3015 3014 3013 3012 3010 3009 3007 3006 3004 3002 3001 3000 2998 2997 2995 2993 2992 2991 2989 2988 2986 2986 2985 2983 2982 2981 2980 2979 2978 2977 2976 2975 2974 2973 2973 2972 2971 2971 2970 2969 2968 2967 2966 2966 2965 2964 2963 2962 2961 2960 2960 2959 2958 2957 2957 2956 2956 2956 2955 2955 2955 2954 2954 2954 2953 2953 2952 2952
3028 3027 3027 3026 3025 3024 3023 3021 3021 3020 3019 3017 3016 3016 3015 3014 3013 3012 3011 3010 3009 3007 3006 3005 3003 3002 3001 2999 2997 2996 2994 2993 2991 2990 2988 2986 2985 2984 2983 2981 2981 2980 2978 2977 2976 2975 2974 2973 2972 2971 2971 2970 2969 2969 2968 2967 2966 2965 2965 2964 2963 2962 2961 2960 2959 2958 2957 2956 2955 2955 2954 2953 2952 2952 2951 2951 2951 2951 2950 2950 2950 2949 2949 2949 2948 2948
3025 3024 3023 3022 3021 3020 3019 3018 3017 3016 3015 3014 3013 3012 3011 3010 3009 3008 3007 3006 3004 3003 3002 3001 3000 2998 2997 2995 2994 2992 2990 2988 2987 2986 2984 2983 2981 2980 2979 2978 2977 2976 2975 2974 2972 2971 2971 2970 2969 2968 2967 2967 2966 2965 2965 2964 2963 2962 2961 2960 2959 2958 2957 2956 2955 2954 2953 2952 2951 2951 2950 2949 2948 2948 2947 2947 2947 2946 2946 2946 2945 2945 2945 2945 2944 2944
3022 3021 3020 3019 3018 3017 3016 3015 3014 3013 3012 3011 3009 3008 3007 3006 3005 3003 3002 3001 3001 2999 2998 2997 2996 2995 2993 2991 2990 2988 2986 2985 2983 2982 2981 2979 2978 2976 2975 2974 2973 2972 2971 2970 2969 2968 2967 2966 2966 2965 2964 2964 2963 2962 2961 2961 2960 2958 2957 2956 2956 2955 2953 2952 2951 2950 2949 2948 2947 2946 2946 2945 2945 2944 2943 2943 2943 2942 2942 2941 2941 2941 2941 2940 2940 2940
3019 3018 3016 3015 3014 3013 3013 3011 3010 3009 3008 3007 3006 3004 3003 3002 3001 3000 2998 2997 2997 2996 2995 2993 2992 2991 2990 2988 2986 2984 2983 2981 2980 2978 2977 2976 2974 2973 2972 2971 2970 2969 2968 2967 2966 2965 2964 2963 2963 2962 2961 2961 2960 2959 2958 2957 2956 2955 2954 2953 2952 2951 2950 2949 2947 2946 2946 2944 2944 2943 2942 2941 2941 2940 2940 2939 2939 2939 2938 2938 2937 2937 2936 2936 2936 2936
3015 3014 3013 3012 3011 3010 3009 3008 3007 3006 3005 3004 3002 3001 2999 2997 2996 2996 2995 2993 2992 2992 2991 2989 2988 2987 2986 2985 2982 2980 2979 2978 2976 2975 2974 2972 2971 2970 2969 2968 2967 2966 2965 2964 2963 2962 2961 2961 2960 2959 2959 2958 2957 2956 2955 2954 2953 2952 2951 2950 2949 2947 2946 2945 2944 2943 2941 2941 2940 2939 2938 2938 2937 2937 2936 2936 2936 2935 2934 2934 2933 2933 2932 2932 2932 2932
3012 3011 3010 3009 3008 3007 3006 3005 3003 3002 3001 3000 2998 2997 2995 2993 2992 2992 2991 2989 2988 2987 2987 2986 2984 2983 2982 2981 2979 2977 2976 2974 2973 2972 2971 2970 2968 2967 2966 2965 2964 2963 2963 2962 2961 2960 2959 2958 2958 2957 2956 2956 2955 2953 2952 2951 2950 2949 2948 2946 2945 2944 2943 2941 2940 2939 2938 2937 2936 2936 2935 2934 2934 2933 2933 2932 2932 2931 2931 2930 2930 2929 2928 2928 2928 2927
3009 3007 3006 3006 3005 3003 3002 3001 3000 2998 2997 2996 2994 2993 2991 2990 2989 2988 2987 2985 2984 2983 2983 2981 2981 2980 2979 2977 2976 2974 2972 2971 2970 2969 2968 2967 2966 2965 2964 2962 2961 2960 2960 2960 2958 2957 2956 2956 2956 2955 2954 2953 2952 2951 2950 2949 2947 2946 2945 2943 2942 2941 2939 2938 2936 2935 2934 2934 2933 2932 2931 2931 2930 2930 2930 2929 2928 2927 2927 2926 2926 2925 2925 2924 2924 2923
3006 3005 3003 3002 3001 3000 2999 2997 2996 2995 2993 2991 2990 2989 2987 2986 2985 2984 2983 2981 2980 2979 2978 2978 2977 2976 2975 2974 2972 2970 2969 2967 2966 2966 2966 2964 2963 2962 2961 2960 2959 2958 2958 2958 2956 2955 2954 2955 2954 2953 2952 2951 2950 2949 2947 2946 2945 2943 2941 2940 2938 2937 2936 2934 2933 2932 2931 2930 2930 2929 2928 2927 2927 2926 2926 2925 2924 2924 2923 2923 2922 2921 2921 2921 2920 2920
3003 3001 3001 2999 2998 2996 2995 2994 2992 2991 2989 2987 2986 2985 2984 2982 2980 2979 2979 2977 2976 2975 2974 2974 2973 2972 2971 2970 2969 2968 2966 2964 2962 2962 2963 2962 2961 2959 2958 2958 2957 2956 2956 2956 2955 2953 2952 2952 2952 2951 2950 2949 2947 2946 2945 2943 2941 2940 2938 2937 2935 2934 2932 2931 2930 2929 2928 2927 2926 2926 2925 2924 2923 2923 2922 2921 2921 2920 2920 2919 2918 2918 2917 2917 2916 2916
3000 2999 2997 2996 2995 2993 2991 2990 2988 2987 2985 2984 2982 2981 2980 2978 2977 2976 2975 2974 2973 2971 2971 2970 2970 2969 2968 2966 2965 2964 2964 2962 2960 2959 2960 2960 2958 2956 2956 2956 2955 2953 2953 2953 2953 2951 2951 2950 2949 2948 2947 2946 2945 2943 2942 2940 2938 2936 2935 2933 2932 2931 2929 2928 2927 2926 2925 2924 2923 2922 2921 2920 2920 2919 2918 2918 2917 2916 2916 2915 2915 2914 2914 2913 2913 2912
2996 2995 2994 2992 2991 2989 2987 2986 2985 2983 2981 2980 2978 2977 2976 2975 2974 2972 2971 2970 2969 2969 2967 2966 2966 2965 2965 2964 2962 2961 2960 2960 2957 2956 2956 2956 2956 2954 2953 2953 2952 2951 2951 2951 2950 2949 2949 2948 2947 2946 2945 2944 2942 2941 2939 2937 2935 2933 2931 2930 2929 2927 2926 2925 2924 2923 2922 2921 2920 2919 2918 2917 2916 2915 2915 2914 2913 2913 2912 2911 2911 2911 2910 2910 2909 2908
2992 2991 2990 2988 2986 2985 2984 2982 2981 2979 2977 2976 2975 2974 2972 2971 2970 2969 2968 2967 2966 2966 2965 2963 2962 2961 2962 2961 2960 2957 2956 2956 2955 2953 2953 2953 2953 2951 2951 2950 2950 2949 2949 2949 2948 2947 2946 2945 2944 2943 2942 2941 2939 2937 2936 2934 2932 2930 2928 2927 2926 2924 2923 2922 2921 2920 2919 2918 2916 2916 2914 2913 2912 2912 2911 2910 2910 2909 2908 2908 2907 2907 2906 2906 2905 2905
2988 2987 2985 2984 2982 2981 2979 2978 2977 2976 2974 2973 2972 2971 2970 2968 2967 2966 2965 2964 2963 2962 2961 2961 2960 2959 2959 2958 2957 2955 2954 2953 2952 2951 2950 2950 2950 2949 2948 2948 2947 2946 2946 2946 2946 2944 2943 2942 2942 2941 2940 2939 2937 2935 2933 2931 2929 2927 2925 2924 2923 2921 2921 2920 2918 2917 2916 2915 2914 2912 2911 2910 2910 2909 2908 2907 2906 2906 2905 2904 2904 2903 2902 2902 2901 2901
2984 2982 2981 2980 2979 2977 2976 2975 2974 2973 2971 2970 2969 2967 2966 2965 2964 2963 2962 2961 2961 2959 2958 2958 2957 2956 2956 2956 2954 2953 2951 2951 2949 2948 2947 2947 2947 2947 2946 2946 2945 2944 2944 2944 2943 2942 2941 2940 2939 2939 2937 2936 2934 2932 2930 2928 2926 2924 2922 2921 2920 2919 2918 2917 2916 2914 2913 2912 2911 2910 2909 2907 2907 2906 2905 2904 2903 2902 2901 2901 2900 2899 2899 2898 2897 2897
2980 2979 2977 2976 2975 2974 2973 2971 2971 2969 2968 2967 2966 2964 2962 2962 2961 2960 2959 2959 2958 2957 2956 2956 2955 2954 2954 2953 2952 2951 2949 2948 2947 2945 2944 2944 2944 2945 2944 2943 2942 2941 2941 2941 2940 2939 2938 2938 2937 2936 2935 2933 2931 2930 2928 2926 2924 2922 2920 2919 2917 2916 2915 2914 2913 2911 2910 2909 2908 2907 2906 2905 2904 2903 2902 2901 2900 2899 2898 2897 2897 2896 2895 2895 2894 2893
2976 2975 2974 2973 2972 2971 2970 2969 2967 2966 2965 2963 2962 2961 2959 2959 2958 2957 2956 2956 2956 2955 2954 2953 2953 2952 2952 2951 2950 2948 2947 2946 2945 2943 2942 2941 2941 2942 2942 2941 2940 2939 2938 2938 2937 2936 2936 2935 2934 2933 2932 2931 2929 2927 2926 2924 2922 2920 2918 2916 2915 2913 2912 2911 2910 2908 2907 2906 2905 2904 2903 2902 2901 2900 2899 2898 2897 2896 2896 2895 2894 2893 2892 2891 2891 2890
2973 2972 2971 2970 2969 2968 2966 2966 2964 2963 2961 2960 2959 2958 2957 2956 2956 2955 2954 2954 2953 2952 2951 2951 2951 2950 2950 2949 2948 2946 2945 2944 2942 2941 2940 2939 2940 2940 2940 2938 2937 2936 2936 2935 2934 2933 2933 2932 2932 2931 2930 2928 2927 2925 2923 2921 2920 2918 2916 2914 2912 2911 2909 2908 2907 2906 2905 2904 2903 2901 2901 2900 2899 2898 2896 2896 2895 2894 2893 2891 2891 2890 2889 2888 2887 2886
2971 2969 2968 2967 2966 2965 2964 2962 2961 2960 2959 2958 2957 2956 2955 2954 2953 2952 2952 2951 2951 2950 2949 2948 2948 2948 2947 2947 2946 2945 2944 2942 2940 2939 2937 2937 2937 2938 2937 2936 2935 2933 2933 2932 2932 2931 2931 2930 2929 2928 2927 2926 2924 2923 2921 2920 2918 2916 2914 2912 2911 2909 2907 2906 2904 2903 2902 2901 2900 2899 2898 2897 2896 2895 2894 2893 2892 2891 2890 2889 2888 2887 2886 2885 2884 2883
2968 2966 2965 2964 2963 2962 2961 2960 2959 2957 2956 2956 2955 2954 2953 2952 2951 2951 2950 2950 2949 2948 2947 2946 2946 2946 2946 2945 2944 2943 2942 2941 2939 2937 2936 2935 2936 2936 2935 2934 2932 2931 2930 2930 2930 2929 2928 2927 2927 2926 2925 2923 2922 2921 2919 2917 2916 2914 2912 2911 2909 2907 2906 2904 2902 2901 2900 2898 2897 2896 2895 2894 2893 2892 2891 2891 2890 2888 2887 2886 2885 2884 2883 2882 2881 2880
2965 2963 2962 2961 2960 2959 2958 2957 2956 2955 2954 2953 2953 2952 2951 2951 2950 2949 2949 2949 2948 2946 2946 2945 2945 2944 2944 2944 2943 2942 2941 2939 2937 2936 2934 2934 2934 2933 2933 2932 2930 2929 2928 2927 2927 2926 2926 2925 2924 2923 2922 2921 2920 2918 2917 2915 2914 2912 2910 2909 2907 2906 2904 2902 2901 2899 2897 2896 2895 2894 2893 2891 2891 2889 2888 2887 2886 2886 2884 2883 2882 2881 2880 2879 2877 2876
2962 2961 2960 2959 2958 2957 2956 2955 2954 2953 2953 2952 2951 2950 2950 2949 2948 2948 2948 2947 2946 2946 2945 2944 2943 2943 2942 2942 2942 2941 2939 2937 2936 2934 2933 2932 2932 2931 2931 2930 2928 2926 2925 2924 2924 2924 2923 2922 2921 2921 2920 2918 2917 2916 2914 2913 2911 2910 2908 2907 2905 2904 2902 2900 2899 2897 2896 2895 2893 2892 2891 2889 2888 2886 2886 2884 2883 2882 2881 2880 2879 2878 2876 2875 2874 2873
2959 2958 2957 2956 2956 2955 2954 2953 2953 2952 2951 2951 2950 2949 2948 2948 2947 2946 2946 2946 2945 2944 2944 2943 2942 2941 2941 2941 2940 2939 2938 2936 2934 2932 2931 2931 2930 2929 2929 2927 2926 2924 2922 2921 2920 2920 2921 2920 2919 2918 2916 2915 2914 2913 2911 2910 2908 2907 2906 2905 2903 2902 2900 2898 2897 2895 2894 2893 2891 2890 2889 2887 2886 2884 2883 2882 2881 2879 2878 2877 2876 2875 2873 2872 2871 2870
2956 2956 2955 2954 2954 2953 2952 2952 2951 2951 2950 2949 2948 2948 2947 2946 2946 2945 2945 2944 2943 2943 2942 2941 2941 2940 2939 2939 2938 2937 2936 2935 2932 2930 2930 2929 2928 2927 2926 2925 2924 2922 2920 2918 2917 2916 2917 2917 2917 2915 2914 2912 2911 2910 2909 2907 2906 2905 2903 2902 2901 2900 2898 2896 2895 2893 2892 2891 2890 2888 2887 2885 2884 2882 2881 2880 2878 2877 2876 2875 2873 2872 2870 2869 2868 2867
2955 2954 2953 2952 2952 2951 2951 2950 2950 2949 2948 2948 2947 2946 2946 2945 2945 2944 2943 2943 2942 2941 2941 2940 2939 2939 2938 2937 2936 2936 2935 2933 2931 2928 2927 2926 2926 2926 2925 2923 2922 2921 2919 2916 2914 2913 2912 2913 2914 2913 2911 2910 2909 2908 2906 2905 2904 2902 2901 2900 2898 2897 2896 2894 2892 2891 2890 2889 2887 2886 2885 2883 2881 2880 2879 2877 2876 2875 2873 2872 2871 2869 2867 2866 2865 2864
2953 2953 2952 2951 2951 2950 2949 2949 2948 2948 2947 2946 2946 2945 2945 2944 2943 2943 2942 2941 2941 2940 2939 2938 2938 2937 2936 2935 2935 2934 2933 2931 2929 2927 2926 2925 2924 2923 2923 2921 2920 2919 2917 2915 2913 2911 2909 2909 2909 2910 2909 2908 2906 2906 2904 2903 2901 2899 2898 2897 2896 2894 2893 2891 2890 2889 2887 2886 2885 2884 2882 2881 2879 2877 2876 2875 2873 2872 2870 2869 2867 2866 2864 2863 2862 2861
2952 2952 2951 2950 2950 2949 2948 2948 2947 2946 2946 2946 2945 2944 2943 2943 2942 2941 2941 2940 2939 2939 2938 2937 2936 2936 2935 2934 2933 2932 2931 2930 2928 2926 2924 2923 2922 2921 2921 2919 2918 2916 2915 2913 2911 2910 2908 2906 2905 2905 2905 2905 2904 2903 2901 2900 2898 2897 2895 2894 2893 2891 2890 2889 2887 2886 2885 2883 2882 2881 2879 2878 2876 2875 2874 2872 2871 2869 2867 2866 2864 2863 2861 2860 2858 2857
2951 2951 2950 2949 2949 2948 2947 2947 2946 2946 2945 2944 2944 2943 2942 2942 2941 2941 2940 2939 2938 2937 2936 2936 2935 2934 2933 2932 2932 2931 2930 2928 2926 2924 2922 2921 2920 2919 2918 2917 2916 2914 2912 2911 2909 2908 2906 2904 2903 2902 2901 2901 2901 2901 2899 2897 2896 2894 2893 2891 2890 2889 2887 2886 2884 2883 2881 2880 2879 2878 2876 2875 2874 2872 2871 2870 2868 2866 2865 2863 2861 2860 2858 2857 2855 2854
2951 2950 2949 2948 2948 2947 2946 2946 2945 2945 2944 2943 2943 2942 2941 2941 2940 2939 2938 2937 2936 2936 2935 2934 2933 2932 2931 2931 2930 2929 2928 2927 2925 2922 2921 2919 2918 2917 2916 2915 2913 2912 2910 2908 2907 2906 2904 2903 2901 2900 2899 2898 2898 2898 2897 2895 2893 2892 2890 2889 2887 2886 2884 2883 2881 2880 2878 2877 2876 2875 2873 2872 2871 2869 2868 2867 2866 2864 2862 2861 2859 2857 2856 2854 2852 2851
2949 2949 2948 2947 2947 2946 2946 2945 2945 2944 2943 2943 2942 2941 2940 2940 2939 2938 2937 2936 2935 2935 2934 2933 2932 2931 2930 2929 2928 2927 2926 2925 2923 2921 2919 2917 2916 2915 2914 2912 2911 2910 2908 2906 2905 2903 2902 2901 2900 2899 2897 2896 2895 2895 2894 2893 2891 2890 2888 2886 2885 2883 2882 2880 2878 2877 2875 2874 2873 2871 2870 2869 2867 2866 2865 2864 2862 2861 2860 2858 2856 2855 2853 2851 2850 2848
2948 2948 2947 2946 2946 2946 2945 2944 2943 2943 2942 2941 2941 2940 2939 2938 2937 2936 2936 2935 2934 2933 2932 2931 2931 2930 2928 2927 2926 2925 2924 2923 2921 2920 2918 2916 2914 2913 2911 2911 2909 2908 2906 2905 2903 2901 2900 2898 2897 2896 2895 2894 2892 2891 2891 2890 2889 2887 2886 2884 2883 2881 2879 2878 2876 2874 2872 2871 2870 2868 2867 2866 2864 2863 2862 2861 2859 2858 2856 2855 2854 2852 2851 2849 2847 2846
2947 2947 2946 2946 2945 2945 2944 2943 2942 2942 2941 2941 2940 2939 2938 2937 2936 2936 2935 2934 2933 2932 2931 2930 2929 2928 2927 2926 2925 2923 2922 2921 2920 2918 2916 2914 2912 2911 2910 2908 2907 2906 2905 2903 2901 2900 2898 2896 2895 2893 2892 2891 2890 2889 2888 2886 2886 2884 2883 2882 2881 2879 2877 2875 2873 2871 2870 2868 2866 2865 2864 2862 2861 2860 2858 2857 2856 2855 2853 2852 2851 2850 2848 2846 2844 2843
2946 2946 2945 2945 2944 2944 2943 2942 2941 2941 2940 2939 2938 2938 2937 2936 2935 2934 2933 2932 2931 2931 2930 2929 2928 2927 2926 2924 2923 2922 2921 2919 2918 2916 2915 2913 2911 2910 2908 2907 2906 2904 2903 2902 2900 2898 2896 2895 2893 2891 2889 2888 2887 2886 2885 2884 2882 2881 2879 2878 2877 2877 2876 2873 2871 2869 2867 2865 2864 2862 2861 2860 2858 2856 2855 2854 2853 2851 2850 2849 2848 2846 2845 2843 2842 2841
2946 2945 2945 2944 2943 2943 2942 2941 2941 2940 2939 2938 2937 2936 2936 2935 2934 2933 2932 2931 2930 2929 2928 2927 2926 2925 2924 2923 2922 2921 2919 2918 2917 2915 2914 2912 2910 2908 2907 2905 2904 2903 2901 2900 2899 2897 2895 2893 2891 2889 2887 2886 2884 2883 2882 2881 2880 2878 2876 2874 2873 2873 2873 2871 2869 2867 2865 2863 2861 2860 2858 2856 2855 2854 2852 2851 2850 2848 2847 2846 2844 2843 2842 2840 2839 2837
2945 2944 2943 2943 2942 2942 2941 2940 2939 2939 2938 2937 2936 2936 2935 2934 2933 2932 2931 2930 2929 2928 2927 2926 2925 2924 2923 2922 2921 2920 2918 2917 2916 2914 2912 2911 2909 2907 2906 2904 2902 2901 2900 2898 2897 2895 2894 2891 2889 2887 2886 2883 2881 2880 2879 2878 2877 2876 2873 2871 2870 2869 2869 2868 2867 2865 2863 2861 2859 2857 2855 2853 2852 2851 2849 2848 2846 2845 2844 2842 2841 2840 2839 2837 2836 2834
2944 2943 2942 2942 2941 2941 2940 2939 2938 2938 2937 2936 2936 2935 2934 2933 2932 2931 2930 2929 2928 2927 2926 2925 2924 2923 2922 2921 2920 2918 2917 2916 2914 2912 2911 2909 2907 2906 2904 2903 2901 2900 2898 2896 2895 2894 2892 2890 2888 2886 2884 2881 2879 2877 2876 2875 2874 2873 2871 2869 2867 2865 2865 2865 2864 2862 2860 2858 2856 2855 2853 2851 2849 2848 2846 2845 2844 2843 2841 2840 2838 2837 2836 2834 2833 2831
2943 2942 2941 2941 2940 2940 2939 2938 2937 2937 2936 2935 2935 2934 2933 2932 2931 2930 2929 2928 2927 2926 2925 2924 2923 2922 2921 2920 2919 2917 2916 2914 2912 2911 2909 2907 2906 2904 2903 2901 2900 2898 2896 2895 2893 2892 2890 2888 2886 2884 2882 2880 2877 2876 2874 2872 2871 2871 2869 2867 2865 2863 2861 2861 2860 2859 2857 2856 2854 2852 2850 2848 2847 2845 2844 2843 2841 2840 2839 2837 2836 2835 2833 2832 2830 2829
2942 2941 2941 2940 2939 2939 2938 2937 2936 2936 2935 2934 2933 2932 2931 2931 2930 2929 2928 2927 2926 2925 2924 2923 2922 2921 2920 2919 2917 2916 2915 2913 2911 2909 2907 2906 2904 2903 2901 2900 2898 2896 2895 2893 2891 2890 2888 2886 2885 2882 2880 2878 2876 2874 2872 2870 2869 2868 2866 2865 2863 2861 2859 2858 2857 2856 2854 2853 2851 2850 2848 2846 2844 2843 2841 2840 2839 2838 2836 2835 2834 2832 2831 2830 2828 2827
2941 2940 2940 2939 2938 2938 2937 2936 2936 2935 2934 2933 2932 2931 2930 2929 2928 2927 2926 2926 2925 2924 2922 2921 2920 2919 2918 2917 2916 2915 2913 2912 2910 2908 2906 2905 2903 2901 2899 2898 2896 2895 2893 2891 2890 2888 2886 2884 2882 2881 2879 2876 2874 2872 2871 2869 2867 2866 2864 2863 2861 2860 2858 2856 2855 2853 2851 2850 2849 2847 2846 2844 2842 2840 2839 2837 2836 2836 2834 2833 2831 2830 2829 2827 2826 2825
2940 2939 2938 2938 2937 2937 2936 2936 2935 2934 2933 2932 2931 2930 2929 2928 2927 2926 2925 2924 2923 2922 2921 2920 2919 2918 2917 2916 2914 2913 2912 2910 2909 2907 2906 2903 2901 2900 2898 2896 2894 2893 2891 2889 2888 2886 2884 2882 2880 2878 2876 2874 2873 2871 2870 2867 2865 2863 2862 2861 2859 2857 2856 2854 2852 2851 2849 2847 2846 2845 2843 2842 2840 2838 2836 2835 2834 2833 2832 2831 2830 2828 2827 2826 2824 2823
2939 2938 2937 2937 2936 2936 2935 2934 2933 2933 2932 2931 2930 2929 2928 2927 2926 2925 2924 2923 2921 2921 2919 2918 2917 2916 2915 2914 2912 2911 2910 2909 2907 2906 2904 2902 2900 2898 2896 2894 2892 2891 2889 2887 2886 2884 2882 2880 2878 2876 2874 2872 2871 2869 2868 2866 2864 2861 2860 2858 2856 2855 2853 2851 2850 2848 2847 2845 2844 2842 2841 2840 2838 2836 2835 2833 2832 2831 2830 2829 2828 2826 2825 2823 2822 2821
2938 2937 2936 2936 2935 2935 2934 2933 2932 2931 2931 2930 2928 2927 2926 2925 2924 2923 2922 2921 2920 2919 2918 2916 2915 2914 2913 2912 2911 2909 2908 2907 2906 2904 2902 2901 2899 2897 2895 2893 2891 2889 2887 2885 2883 2881 2880 2878 2876 2875 2873 2871 2869 2867 2865 2864 2862 2860 2858 2856 2854 2852 2850 2849 2847 2846 2844 2843 2841 2840 2839 2837 2836 2834 2833 2831 2831 2830 2828 2827 2826 2825 2823 2822 2821 2820
2937 2936 2936 2935 2934 2933 2932 2931 2931 2930 2929 2928 2927 2926 2925 2924 2923 2921 2920 2919 2918 2917 2916 2915 2914 2912 2911 2910 2909 2907 2906 2905 2903 2902 2901 2899 2897 2895 2893 2891 2889 2887 2885 2883 2881 2880 2878 2876 2874 2873 2871 2869 2866 2864 2863 2861 2860 2858 2856 2854 2851 2849 2847 2846 2845 2844 2842 2841 2839 2838 2837 2836 2834 2832 2831 2830 2829 2828 2827 2826 2825 2823 2822 2821 2819 2818
2936 2935 2934 2933 2933 2932 2931 2930 2929 2928 2928 2927 2926 2925 2924 2922 2921 2920 2919 2917 2916 2915 2914 2913 2911 2911 2909 2908 2907 2906 2904 2903 2901 2900 2899 2897 2895 2893 2891 2889 2887 2885 2883 2881 2879 2877 2876 2874 2872 2871 2869 2867 2865 2862 2860 2859 2857 2856 2854 2851 2850 2847 2846 2844 2843 2841 2840 2839 2838 2836 2836 2834 2833 2831 2830 2828 2827 2826 2825 2824 2823 2822 2821 2819 2818 2817
2934 2933 2932 2932 2931 2930 2930 2929 2928 2927 2926 2925 2924 2923 2922 2921 2920 2918 2917 2916 2914 2913 2912 2911 2910 2908 2907 2906 2905 2904 2902 2901 2900 2898 2896 2895 2893 2891 2889 2887 2885 2882 2880 2878 2876 2875 2873 2871 2870 2869 2868 2866 2864 2861 2858 2856 2855 2853 2851 2850 2848 2846 2844 2842 2841 2840 2838 2837 2836 2835 2834 2832 2831 2830 2828 2827 2826 2824 2824 2823 2822 2821 2819 2818 2817 2816